TimeCDT,TemperatureF,Dew PointF,Humidity,Sea Level PressureIn,VisibilityMPH,Wind Direction,Wind SpeedMPH,Gust SpeedMPH,PrecipitationIn,Events,Conditions,WindDirDegrees,DateUTC
12:56 AM,41.0,35.1,79,30.28,10.0,Calm,Calm,-,N/A,,Clear,0,2013-03-29 05:56:00
1:56 AM,41.0,36.0,82,30.27,10.0,Calm,Calm,-,0.00,,Clear,0,2013-03-29 06:56:00
2:56 AM,37.9,34.0,86,30.26,10.0,Calm,Calm,-,0.00,Rain,Light Rain,0,2013-03-29 07:56:00
3:56 AM,39.0,35.1,86,30.25,10.0,Calm,Calm,-,0.00,,Clear,0,2013-03-29 08:56:00
4:56 AM,39.0,35.1,86,30.25,10.0,Calm,Calm,-,0.00,,Clear,0,2013-03-29 09:56:00
5:56 AM,39.0,35.1,86,30.27,9.0,Calm,Calm,-,N/A,,Clear,0,2013-03-29 10:56:00
6:56 AM,37.9,34.0,86,30.28,8.0,Calm,Calm,-,N/A,,Partly Cloudy,0,2013-03-29 11:56:00
7:56 AM,46.0,39.9,79,30.30,10.0,Calm,Calm,-,N/A,,Partly Cloudy,0,2013-03-29 12:56:00
8:56 AM,57.0,39.9,53,30.30,8.0,NE,3.5,-,N/A,,Partly Cloudy,50,2013-03-29 13:56:00
9:56 AM,64.9,35.1,33,30.31,9.0,Calm,Calm,-,N/A,,Partly Cloudy,0,2013-03-29 14:56:00
10:56 AM,69.1,32.0,25,30.30,10.0,Variable,5.8,-,N/A,,Partly Cloudy,0,2013-03-29 15:56:00
11:56 AM,72.0,30.9,22,30.27,10.0,South,5.8,17.3,N/A,,Partly Cloudy,170,2013-03-29 16:56:00
12:56 PM,73.0,28.9,20,30.25,10.0,SSE,11.5,17.3,N/A,,Partly Cloudy,150,2013-03-29 17:56:00
1:56 PM,73.0,28.9,20,30.23,10.0,South,15.0,20.7,N/A,,Partly Cloudy,170,2013-03-29 18:56:00
2:56 PM,73.0,33.1,23,30.21,10.0,SSW,11.5,20.7,N/A,,Partly Cloudy,200,2013-03-29 19:56:00
3:56 PM,71.1,27.0,19,30.21,10.0,South,17.3,23.0,N/A,,Scattered Clouds,190,2013-03-29 20:56:00
4:56 PM,69.1,34.0,27,30.19,10.0,SSW,16.1,-,N/A,,Scattered Clouds,200,2013-03-29 21:56:00
5:56 PM,66.0,44.1,45,30.20,10.0,SSW,15.0,19.6,N/A,,Scattered Clouds,200,2013-03-29 22:56:00
6:56 PM,62.1,46.9,58,30.20,10.0,SSW,10.4,-,N/A,,Scattered Clouds,200,2013-03-29 23:56:00
7:56 PM,57.9,48.0,70,30.21,10.0,SSW,6.9,-,N/A,,Scattered Clouds,200,2013-03-30 00:56:00
8:56 PM,55.0,48.0,77,30.21,10.0,South,4.6,-,N/A,,Scattered Clouds,180,2013-03-30 01:56:00
9:56 PM,53.1,48.0,83,30.22,9.0,Calm,Calm,-,N/A,,Partly Cloudy,0,2013-03-30 02:56:00
10:56 PM,53.1,48.0,83,30.21,9.0,Calm,Calm,-,N/A,,Partly Cloudy,0,2013-03-30 03:56:00
11:56 PM,55.0,50.0,83,30.20,8.0,Calm,Calm,-,N/A,,Clear,0,2013-03-30 04:56:00